Location: ????????
(55.7667°N, 37.4833°E)
Time: 13:54:17
(UTC+00:00)

ARIANE 5 R/B - Pass Details

Date: 19 May 2025
Orbit: 614 x 648 km, 98.0° (Epoch: 16 June)

Event Time Altitude Azimuth Distance (km) Brightness Sun altitude
Exits shadow 19:46:30 16° 143° (SE) 1,639 4.1 -11.4°
Maximum altitude 19:49:51 56° 68° (ENE) 744 2.9 -11.5°
Drops below altitude 10° 19:54:08 10° 351° (N) 2,012 6.6 -11.8°
Sets 19:56:22 0° 347° (NNW) 2,929 8.0 -11.9°
